{"data":{"norad_id":68179,"epoch":"2026-09-20T00:04:15.564288Z","epoch_age_seconds":99090,"freshness":"FRESH","line1":"1 68179U 26050N   26263.00295792  .00020362  00000+0  61197-3 0  9996","line2":"2 68179  53.1584  79.9132 0001687  86.0967 274.0228 15.34408136 30494","mean_motion":15.34408136,"eccentricity":0.0001687,"inclination_deg":53.1584,"raan_deg":79.9132,"arg_perigee_deg":86.0967,"mean_anomaly_deg":274.0228,"bstar":0.00061197,"rev_number":3049,"period_min":93.847260465777,"perigee_km":461.52501273832,"apogee_km":463.83310407642,"semimajor_km":6840.8160584074,"source":"CELESTRAK","updated_at":"2026-09-20T09:00:43.800980Z"}}